Location: Ar Ranvel
(48.3000°N, 4.8833°W)
Time: 19:16:21
(UTC+00:00)

Cosmos 1461 - Visible Passes

Search period start: 21 October 2021 00:00
Search period end: 31 October 2021 00:00
Orbit: 520 x 642 km, 65.0° (Epoch: 21 October)

Date Brightness Start Highest point End Pass type
(mag) Time Alt. Az. Time Alt. Az. Time Alt. Az.
21 Oct 5.0 03:42:39 23° NE 03:42:39 23° NE 03:44:18 10° NE visible
21 Oct 4.6 05:19:00 18° NW 05:19:41 18° NNW 05:22:38 10° NNE visible
22 Oct 5.1 03:47:55 21° NNE 03:47:55 21° NNE 03:49:22 10° NNE visible
22 Oct 4.8 05:24:17 14° NW 05:25:05 14° NNW 05:27:26 10° N visible
23 Oct 5.2 03:53:09 18° NNE 03:53:09 18° NNE 03:54:22 10° NNE visible
23 Oct 5.1 05:29:30 11° NW 05:30:32 12° NNW 05:32:05 10° N visible
24 Oct 5.3 03:58:20 15° NNE 03:58:20 15° NNE 03:59:19 10° NNE visible
25 Oct 5.4 04:03:28 13° N 04:03:28 13° N 04:04:13 10° NNE visible
26 Oct 5.5 04:08:36 12° N 04:08:36 12° N 04:09:04 10° N visible
27 Oct 5.6 04:13:41 10° N 04:13:41 10° N 04:13:49 10° N visible
